,,Stat6,,Stat2,,Stat8,,Stat9,,Stat10,,Wind1,,Wind1,
time,status,PA1M_AVG,status,PR1M_SUM,status,RH1M_AVG,status,SR1M_AVG,status,TA1M_AVG,status,W1dAve1m,status,W1sAve1m,
2008-10-05, 00:00:00,VALID,918.385,VALID,0,VALID,100,VALID,-0.0169808,VALID,19.3227,VALID,197,VALID,0,
2008-10-05, 00:01:00,VALID,918.395,VALID,0,VALID,100,VALID,-0.0169808,VALID,19.3359,VALID,197,VALID,0,
2008-10-05, 00:02:00,VALID,918.392,VALID,0,VALID,100,VALID,-0.0509425,VALID,19.3389,VALID,197,VALID,0,
2008-10-05, 00:03:00,VALID,918.384,VALID,0,VALID,100,VALID,-0.0169808,VALID,19.3389,VALID,197,VALID,0,
2008-10-05, 00:04:00,VALID,918.393,VALID,0,VALID,100,VALID,-0.0849042,VALID,19.3459,VALID,197,VALID,0,
2008-10-05, 00:05:00,VALID,918.39,VALID,0,VALID,100,VALID,-0.0679233,VALID,19.3556,VALID,197,VALID,0,
2008-10-05, 00:06:00,VALID,918.395,VALID,0,VALID,100,VALID,-0.0169808,VALID,19.3586,VALID,197,VALID,0,
2008-10-05, 00:07:00,VALID,918.38,VALID,0,VALID,100,VALID,0,VALID,19.3487,VALID,197,VALID,0,
2008-10-05, 00:08:00,VALID,918.374,VALID,0,VALID,100,VALID,-0.0339617,VALID,19.3424,VALID,197,VALID,0,
2008-10-05, 00:09:00,VALID,918.363,VALID,0,VALID,100,VALID,-0.0169808,VALID,19.3487,VALID,197,VALID,0,
2008-10-05, 00:10:00,VALID,918.362,VALID,0,VALID,100,VALID,0,VALID,19.3489,VALID,197,VALID,0,
2008-10-05, 00:11:00,VALID,918.356,VALID,0,VALID,100,VALID,0,VALID,19.3457,VALID,202,VALID,0,
2008-10-05, 00:12:00,VALID,918.352,VALID,0,VALID,100,VALID,0,VALID,19.3454,VALID,204,VALID,0,
2008-10-05, 00:13:00,VALID,918.344,VALID,0,VALID,100,VALID,-0.0169808,VALID,19.3514,VALID,204,VALID,0,
2008-10-05, 00:14:00,VALID,918.347,VALID,0,VALID,100,VALID,0,VALID,19.3584,VALID,204,VALID,0,
2008-10-05, 00:15:00,VALID,918.344,VALID,0,VALID,100,VALID,-0.0169808,VALID,19.3651,VALID,204,VALID,0,
2008-10-05, 00:16:00,VALID,918.33,VALID,0,VALID,100,VALID,0.0339617,VALID,19.3616,VALID,204,VALID,0,
2008-10-05, 00:17:00,VALID,918.321,VALID,0,VALID,100,VALID,0.0339617,VALID,19.3681,VALID,204,VALID,0,
2008-10-05, 00:18:00,VALID,918.305,VALID,0,VALID,100,VALID,0,VALID,19.3776,VALID,204,VALID,0,
2008-10-05, 00:19:00,VALID,918.295,VALID,0,VALID,100,VALID,-0.0169808,VALID,19.3749,VALID,204,VALID,0,
2008-10-05, 00:20:00,VALID,918.285,VALID,0,VALID,100,VALID,-0.0169808,VALID,19.3714,VALID,204,VALID,0,
2008-10-05, 00:21:00,VALID,918.262,VALID,0,VALID,100,VALID,-0.0169808,VALID,19.3621,VALID,204,VALID,0,
2008-10-05, 00:22:00,VALID,918.239,VALID,0,VALID,100,VALID,0,VALID,19.3492,VALID,204,VALID,0,
2008-10-05, 00:23:00,VALID,918.221,VALID,0,VALID,100,VALID,-0.0169808,VALID,19.3357,VALID,204,VALID,0,
2008-10-05, 00:24:00,VALID,918.198,VALID,0,VALID,100,VALID,0.0169808,VALID,19.3165,VALID,204,VALID,0,
2008-10-05, 00:25:00,VALID,918.196,VALID,0,VALID,100,VALID,-0.0169808,VALID,19.2673,VALID,204,VALID,0,
2008-10-05, 00:26:00,VALID,918.172,VALID,0,VALID,100,VALID,0,VALID,19.1957,VALID,204,VALID,0,
2008-10-05, 00:27:00,VALID,918.155,VALID,0,VALID,100,VALID,0.0169808,VALID,19.1925,VALID,204,VALID,0,
2008-10-05, 00:28:00,VALID,918.141,VALID,0,VALID,100,VALID,0,VALID,19.177,VALID,204,VALID,0,
2008-10-05, 00:29:00,VALID,918.133,VALID,0,VALID,100,VALID,0,VALID,19.1573,VALID,204,VALID,0,
2008-10-05, 00:30:00,VALID,918.128,VALID,0,VALID,100,VALID,0.0339617,VALID,19.1635,VALID,204,VALID,0,
2008-10-05, 00:31:00,VALID,918.111,VALID,0,VALID,100,VALID,0,VALID,19.1607,VALID,204,VALID,0,
2008-10-05, 00:32:00,VALID,918.098,VALID,0,VALID,100,VALID,-0.0509425,VALID,19.174,VALID,204,VALID,0,
2008-10-05, 00:33:00,VALID,918.079,VALID,0,VALID,100,VALID,-0.0169808,VALID,19.177,VALID,204,VALID,0,
2008-10-05, 00:34:00,VALID,918.074,VALID,0,VALID,100,VALID,0,VALID,19.183,VALID,204,VALID,0,
2008-10-05, 00:35:00,VALID,918.055,VALID,0,VALID,100,VALID,0,VALID,19.1964,VALID,173,VALID,0.0900213,
2008-10-05, 00:36:00,VALID,918.05,VALID,0,VALID,100,VALID,-0.0169808,VALID,19.2256,VALID,153,VALID,0,
2008-10-05, 00:37:00,VALID,918.031,VALID,0,VALID,100,VALID,0,VALID,19.2516,VALID,146,VALID,0,
2008-10-05, 00:38:00,VALID,918.019,VALID,0,VALID,100,VALID,-0.0339617,VALID,19.2708,VALID,146,VALID,0,
2008-10-05, 00:39:00,VALID,918.013,VALID,0,VALID,100,VALID,-0.0169808,VALID,19.2998,VALID,146,VALID,0,
2008-10-05, 00:40:00,VALID,918.001,VALID,0,VALID,100,VALID,0,VALID,19.3002,VALID,146,VALID,0,
2008-10-05, 00:41:00,VALID,917.977,VALID,0,VALID,100,VALID,0,VALID,19.2606,VALID,146,VALID,0,
2008-10-05, 00:42:00,VALID,917.963,VALID,0,VALID,100,VALID,-0.0169808,VALID,19.2808,VALID,146,VALID,0,
2008-10-05, 00:43:00,VALID,917.949,VALID,0,VALID,100,VALID,0,VALID,19.2835,VALID,146,VALID,0,
2008-10-05, 00:44:00,VALID,917.95,VALID,0,VALID,100,VALID,-0.0169808,VALID,19.2803,VALID,146,VALID,0,
2008-10-05, 00:45:00,VALID,917.947,VALID,0,VALID,100,VALID,0,VALID,19.284,VALID,146,VALID,0,
2008-10-05, 00:46:00,VALID,917.937,VALID,0,VALID,100,VALID,0,VALID,19.2773,VALID,146,VALID,0,
2008-10-05, 00:47:00,VALID,917.936,VALID,0,VALID,100,VALID,0,VALID,19.2414,VALID,146,VALID,0,
2008-10-05, 00:48:00,VALID,917.918,VALID,0,VALID,100,VALID,0,VALID,19.2224,VALID,146,VALID,0,
2008-10-05, 00:49:00,VALID,917.921,VALID,0,VALID,100,VALID,0,VALID,19.2027,VALID,146,VALID,0,
2008-10-05, 00:50:00,VALID,917.913,VALID,0,VALID,100,VALID,0,VALID,19.2027,VALID,146,VALID,0,
2008-10-05, 00:51:00,VALID,917.906,VALID,0,VALID,100,VALID,0,VALID,19.2094,VALID,146,VALID,0,
2008-10-05, 00:52:00,VALID,917.886,VALID,0,VALID,100,VALID,0,VALID,19.1932,VALID,146,VALID,0,
2008-10-05, 00:53:00,VALID,917.875,VALID,0,VALID,100,VALID,0.0169808,VALID,19.1084,VALID,146,VALID,0,
2008-10-05, 00:54:00,VALID,917.868,VALID,0,VALID,100,VALID,-0.0169808,VALID,19.0599,VALID,146,VALID,0,
2008-10-05, 00:55:00,VALID,917.846,VALID,0,VALID,100,VALID,0,VALID,19.0275,VALID,146,VALID,0,
2008-10-05, 00:56:00,VALID,917.836,VALID,0,VALID,100,VALID,0,VALID,18.9754,VALID,146,VALID,0,
2008-10-05, 00:57:00,VALID,917.818,VALID,0,VALID,100,VALID,0,VALID,18.9786,VALID,146,VALID,0,
2008-10-05, 00:58:00,VALID,917.796,VALID,0,VALID,100,VALID,0.0169808,VALID,18.9948,VALID,146,VALID,0,
2008-10-05, 00:59:00,VALID,917.806,VALID,0,VALID,100,VALID,0,VALID,18.9337,VALID,106,VALID,0,
2008-10-05, 01:00:00,VALID,917.792,VALID,0,VALID,100,VALID,0,VALID,18.8456,VALID,73,VALID,0,
2008-10-05, 01:01:00,VALID,917.766,VALID,0,VALID,100,VALID,0,VALID,18.8753,VALID,70,VALID,0,
2008-10-05, 01:02:00,VALID,917.771,VALID,0,VALID,100,VALID,0,VALID,18.901,VALID,74,VALID,0,
2008-10-05, 01:03:00,VALID,917.76,VALID,0,VALID,100,VALID,-0.0169808,VALID,18.9369,VALID,79,VALID,0,
2008-10-05, 01:04:00,VALID,917.726,VALID,0,VALID,100,VALID,0,VALID,18.9432,VALID,79,VALID,0,
2008-10-05, 01:05:00,VALID,917.717,VALID,0,VALID,100,VALID,-0.0169808,VALID,18.9237,VALID,80,VALID,0,
2008-10-05, 01:06:00,VALID,917.677,VALID,0,VALID,100,VALID,0,VALID,18.9726,VALID,88,VALID,0,
2008-10-05, 01:07:00,VALID,917.654,VALID,0,VALID,100,VALID,0,VALID,18.9851,VALID,88,VALID,0,
2008-10-05, 01:08:00,VALID,917.629,VALID,0,VALID,100,VALID,0,VALID,18.9791,VALID,88,VALID,0,
2008-10-05, 01:09:00,VALID,917.617,VALID,0,VALID,100,VALID,0,VALID,18.9791,VALID,134,VALID,0.0816592,
2008-10-05, 01:10:00,VALID,917.619,VALID,0,VALID,100,VALID,-0.0509425,VALID,18.9596,VALID,145,VALID,0,
2008-10-05, 01:11:00,VALID,917.603,VALID,0,VALID,100,VALID,0,VALID,18.8947,VALID,142,VALID,0,
2008-10-05, 01:12:00,VALID,917.6,VALID,0,VALID,100,VALID,-0.0169808,VALID,18.8329,VALID,81,VALID,0,
2008-10-05, 01:13:00,VALID,917.607,VALID,0,VALID,100,VALID,-0.0509425,VALID,18.7583,VALID,81,VALID,0,
2008-10-05, 01:14:00,VALID,917.603,VALID,0,VALID,100,VALID,-0.0339617,VALID,18.7388,VALID,81,VALID,0,
2008-10-05, 01:15:00,VALID,917.607,VALID,0,VALID,100,VALID,0,VALID,18.7358,VALID,82,VALID,0,
2008-10-05, 01:16:00,VALID,917.589,VALID,0,VALID,100,VALID,-0.0339617,VALID,18.7131,VALID,92,VALID,0,
2008-10-05, 01:17:00,VALID,917.584,VALID,0,VALID,100,VALID,0,VALID,18.6966,VALID,92,VALID,0,
2008-10-05, 01:18:00,VALID,917.568,VALID,0,VALID,100,VALID,-0.0509425,VALID,18.6739,VALID,113,VALID,0,
2008-10-05, 01:19:00,VALID,917.548,VALID,0,VALID,100,VALID,-0.0339617,VALID,18.6869,VALID,105,VALID,0,
2008-10-05, 01:20:00,VALID,917.524,VALID,0,VALID,100,VALID,-0.101885,VALID,18.7398,VALID,99,VALID,0,
2008-10-05, 01:21:00,VALID,917.503,VALID,0,VALID,100,VALID,-0.0849042,VALID,18.762,VALID,100,VALID,0,
2008-10-05, 01:22:00,VALID,917.483,VALID,0,VALID,100,VALID,-0.0849042,VALID,18.8042,VALID,104,VALID,0,
2008-10-05, 01:23:00,VALID,917.47,VALID,0,VALID,100,VALID,-0.0849042,VALID,18.8466,VALID,106,VALID,0,
2008-10-05, 01:24:00,VALID,917.463,VALID,0,VALID,100,VALID,-0.0849042,VALID,18.8628,VALID,128,VALID,0,
2008-10-05, 01:25:00,VALID,917.455,VALID,0,VALID,100,VALID,-0.0509425,VALID,18.8855,VALID,133,VALID,0,
2008-10-05, 01:26:00,VALID,917.446,VALID,0,VALID,100,VALID,-0.0509425,VALID,18.9082,VALID,133,VALID,0,
2008-10-05, 01:27:00,VALID,917.422,VALID,0,VALID,100,VALID,-0.0849042,VALID,18.9274,VALID,133,VALID,0,
2008-10-05, 01:28:00,VALID,917.404,VALID,0,VALID,100,VALID,-0.0679233,VALID,18.9244,VALID,133,VALID,0,
2008-10-05, 01:29:00,VALID,917.381,VALID,0,VALID,100,VALID,-0.0509425,VALID,18.9179,VALID,133,VALID,0,
2008-10-05, 01:30:00,VALID,917.366,VALID,0,VALID,100,VALID,-0.0849042,VALID,18.8994,VALID,76,VALID,0,
2008-10-05, 01:31:00,VALID,917.362,VALID,0,VALID,100,VALID,-0.0679233,VALID,18.8728,INVALID,360,VALID,0,
2008-10-05, 01:32:00,VALID,917.355,VALID,0,VALID,100,VALID,-0.101885,VALID,18.8658,VALID,314,VALID,0,
2008-10-05, 01:33:00,VALID,917.328,VALID,0,VALID,100,VALID,-0.0339617,VALID,18.8658,VALID,314,VALID,0,
2008-10-05, 01:34:00,VALID,917.326,VALID,0,VALID,100,VALID,0,VALID,18.8394,VALID,314,VALID,0,
2008-10-05, 01:35:00,VALID,917.317,VALID,0,VALID,100,VALID,0.101885,VALID,18.7835,VALID,314,VALID,0,
2008-10-05, 01:36:00,VALID,917.299,VALID,0,VALID,100,VALID,0.0169808,VALID,18.7576,VALID,314,VALID,0,
2008-10-05, 01:37:00,VALID,917.299,VALID,0,VALID,100,VALID,0.0509425,VALID,18.7441,VALID,314,VALID,0,
2008-10-05, 01:38:00,VALID,917.3,VALID,0,VALID,100,VALID,0.0339617,VALID,18.7411,VALID,314,VALID,0,
2008-10-05, 01:39:00,VALID,917.288,VALID,0,VALID,100,VALID,0.0169808,VALID,18.7087,VALID,314,VALID,0,
2008-10-05, 01:40:00,VALID,917.265,VALID,0,VALID,100,VALID,0.0679233,VALID,18.6663,VALID,314,VALID,0,
2008-10-05, 01:41:00,VALID,917.262,VALID,0,VALID,100,VALID,0.0679233,VALID,18.6443,VALID,314,VALID,0,
2008-10-05, 01:42:00,VALID,917.281,VALID,0,VALID,100,VALID,0.0339617,VALID,18.5664,VALID,314,VALID,0,
2008-10-05, 01:43:00,VALID,917.268,VALID,0,VALID,100,VALID,0.0849042,VALID,18.4754,VALID,314,VALID,0,
2008-10-05, 01:44:00,VALID,917.257,VALID,0,VALID,100,VALID,0.101885,VALID,18.4101,VALID,314,VALID,0,
2008-10-05, 01:45:00,VALID,917.244,VALID,0,VALID,100,VALID,0.0169808,VALID,18.4033,VALID,314,VALID,0,
2008-10-05, 01:46:00,VALID,917.229,VALID,0,VALID,100,VALID,0.0169808,VALID,18.3781,VALID,314,VALID,0,
2008-10-05, 01:47:00,VALID,917.226,VALID,0,VALID,100,VALID,-0.0169808,VALID,18.3167,VALID,314,VALID,0,
2008-10-05, 01:48:00,VALID,917.194,VALID,0,VALID,100,VALID,0.0169808,VALID,18.2905,VALID,314,VALID,0,
2008-10-05, 01:49:00,VALID,917.189,VALID,0,VALID,100,VALID,-0.0339617,VALID,18.301,VALID,314,VALID,0,
2008-10-05, 01:50:00,VALID,917.169,VALID,0,VALID,100,VALID,-0.0509425,VALID,18.3244,VALID,314,VALID,0,
2008-10-05, 01:51:00,VALID,917.167,VALID,0,VALID,100,VALID,-0.0679233,VALID,18.3274,VALID,314,VALID,0,
2008-10-05, 01:52:00,VALID,917.154,VALID,0,VALID,100,VALID,-0.0849042,VALID,18.3149,VALID,314,VALID,0,
2008-10-05, 01:53:00,VALID,917.155,VALID,0,VALID,100,VALID,-0.0849042,VALID,18.3176,VALID,231,VALID,0,
2008-10-05, 01:54:00,VALID,917.158,VALID,0,VALID,100,VALID,-0.0679233,VALID,18.3308,VALID,213,VALID,0,
2008-10-05, 01:55:00,VALID,917.145,VALID,0,VALID,100,VALID,-0.0679233,VALID,18.3111,VALID,213,VALID,0,
2008-10-05, 01:56:00,VALID,917.126,VALID,0,VALID,100,VALID,-0.0849042,VALID,18.3765,VALID,198,VALID,0,
2008-10-05, 01:57:00,VALID,917.119,VALID,0,VALID,100,VALID,-0.0679233,VALID,18.3955,VALID,170,VALID,0,
2008-10-05, 01:58:00,VALID,917.096,VALID,0,VALID,100,VALID,-0.0849042,VALID,18.4601,VALID,170,VALID,0,
2008-10-05, 01:59:00,VALID,917.104,VALID,0,VALID,100,VALID,-0.101885,VALID,18.496,VALID,165,VALID,0,
2008-10-05, 02:00:00,VALID,917.113,VALID,0,VALID,100,VALID,-0.0849042,VALID,18.4731,VALID,159,VALID,0,
2008-10-05, 02:01:00,VALID,917.118,VALID,0,VALID,100,VALID,-0.0679233,VALID,18.4541,VALID,144,VALID,0,
2008-10-05, 02:02:00,VALID,917.103,VALID,0,VALID,100,VALID,-0.101885,VALID,18.4504,VALID,144,VALID,0,
2008-10-05, 02:03:00,VALID,917.102,VALID,0,VALID,100,VALID,-0.101885,VALID,18.4476,VALID,133,VALID,0,
2008-10-05, 02:04:00,VALID,917.081,VALID,0,VALID,100,VALID,-0.0169808,VALID,18.4145,VALID,126,VALID,0,
2008-10-05, 02:05:00,VALID,917.077,VALID,0,VALID,100,VALID,-0.0679233,VALID,18.48,VALID,126,VALID,0,
2008-10-05, 02:06:00,VALID,917.079,VALID,0,VALID,100,VALID,-0.0679233,VALID,18.5055,VALID,132,VALID,0,
2008-10-05, 02:07:00,VALID,917.061,VALID,0,VALID,100,VALID,-0.0509425,VALID,18.5349,VALID,143,VALID,0.0612282,
2008-10-05, 02:08:00,VALID,917.042,VALID,0,VALID,100,VALID,-0.0679233,VALID,18.5349,VALID,164,VALID,0.00483631,
2008-10-05, 02:09:00,VALID,917.023,VALID,0,VALID,100,VALID,-0.0509425,VALID,18.5183,VALID,169,VALID,0.0565476,
2008-10-05, 02:10:00,VALID,917.023,VALID,0,VALID,100,VALID,-0.0509425,VALID,18.5157,VALID,169,VALID,0,
2008-10-05, 02:11:00,VALID,917.039,VALID,0,VALID,100,VALID,-0.0849042,VALID,18.4698,VALID,141,VALID,0,
2008-10-05, 02:12:00,VALID,917.053,VALID,0,VALID,100,VALID,-0.0849042,VALID,18.4603,VALID,119,VALID,0,
2008-10-05, 02:13:00,VALID,917.039,VALID,0,VALID,100,VALID,-0.0679233,VALID,18.4342,VALID,104,VALID,0.113948,
2008-10-05, 02:14:00,VALID,917.038,VALID,0,VALID,100,VALID,-0.0849042,VALID,18.4569,VALID,114,VALID,0,
2008-10-05, 02:15:00,VALID,917.042,VALID,0,VALID,100,VALID,-0.101885,VALID,18.4698,VALID,114,VALID,0,
2008-10-05, 02:16:00,VALID,917.047,VALID,0,VALID,100,VALID,-0.0509425,VALID,18.4571,VALID,126,VALID,0,
2008-10-05, 02:17:00,VALID,917.071,VALID,0,VALID,100,VALID,-0.101885,VALID,18.4349,VALID,121,VALID,0,
2008-10-05, 02:18:00,VALID,917.084,VALID,0,VALID,100,VALID,-0.0849042,VALID,18.386,VALID,109,VALID,0,
2008-10-05, 02:19:00,VALID,917.107,VALID,0,VALID,100,VALID,-0.0509425,VALID,18.3693,VALID,137,VALID,0,
2008-10-05, 02:20:00,VALID,917.152,VALID,0,VALID,100,VALID,0.0339617,VALID,18.3654,VALID,142,VALID,0.0737092,
2008-10-05, 02:21:00,VALID,917.157,VALID,0,VALID,100,VALID,0.0339617,VALID,18.3355,VALID,142,VALID,0,
2008-10-05, 02:22:00,VALID,917.175,VALID,0,VALID,100,VALID,0.0339617,VALID,18.3359,VALID,139,VALID,0.00114329,
2008-10-05, 02:23:00,VALID,917.197,VALID,0,VALID,100,VALID,0.0169808,VALID,18.3095,VALID,155,VALID,0.964208,
2008-10-05, 02:24:00,VALID,917.21,VALID,0,VALID,100,VALID,0.0339617,VALID,18.3165,VALID,164,VALID,0.00799851,
2008-10-05, 02:25:00,VALID,917.234,VALID,0,VALID,100,VALID,0.0509425,VALID,18.3389,VALID,159,VALID,0.501002,
2008-10-05, 02:26:00,VALID,917.235,VALID,0,VALID,100,VALID,0.0339617,VALID,18.3521,VALID,115,VALID,0.175686,
2008-10-05, 02:27:00,VALID,917.233,VALID,0,VALID,100,VALID,0.0339617,VALID,18.3063,VALID,102,VALID,0,
2008-10-05, 02:28:00,VALID,917.215,VALID,0,VALID,100,VALID,0,VALID,18.2935,VALID,101,VALID,0,
2008-10-05, 02:29:00,VALID,917.21,VALID,0,VALID,100,VALID,0.0169808,VALID,18.3035,VALID,101,VALID,0,
2008-10-05, 02:30:00,VALID,917.207,VALID,0,VALID,100,VALID,0.0679233,VALID,18.313,VALID,101,VALID,0,
2008-10-05, 02:31:00,VALID,917.227,VALID,0,VALID,100,VALID,0.0339617,VALID,18.313,VALID,101,VALID,0,
2008-10-05, 02:32:00,VALID,917.223,VALID,0,VALID,100,VALID,0.0169808,VALID,18.3,VALID,101,VALID,0,
2008-10-05, 02:33:00,VALID,917.196,VALID,0,VALID,100,VALID,0,VALID,18.2871,VALID,54,VALID,0,
2008-10-05, 02:34:00,VALID,917.192,VALID,0,VALID,100,VALID,-0.0339617,VALID,18.3047,VALID,19,VALID,0,
2008-10-05, 02:35:00,VALID,917.179,VALID,0,VALID,100,VALID,-0.0849042,VALID,18.2982,VALID,16,VALID,0.0440972,
2008-10-05, 02:36:00,VALID,917.168,VALID,0,VALID,100,VALID,-0.0679233,VALID,18.3044,VALID,8,VALID,0,
2008-10-05, 02:37:00,VALID,917.143,VALID,0,VALID,100,VALID,-0.0679233,VALID,18.3114,VALID,359,VALID,0,
2008-10-05, 02:38:00,VALID,917.135,VALID,0,VALID,100,VALID,-0.0679233,VALID,18.3144,VALID,344,VALID,0,
2008-10-05, 02:39:00,VALID,917.132,VALID,0,VALID,100,VALID,-0.101885,VALID,18.3501,INVALID,360,VALID,0,
2008-10-05, 02:40:00,VALID,917.125,VALID,0,VALID,100,VALID,-0.101885,VALID,18.376,VALID,338,VALID,0,
2008-10-05, 02:41:00,VALID,917.13,VALID,0,VALID,100,VALID,-0.0849042,VALID,18.4082,VALID,357,VALID,0,
2008-10-05, 02:42:00,VALID,917.151,VALID,0,VALID,100,VALID,-0.0679233,VALID,18.4381,VALID,30,VALID,0,
2008-10-05, 02:43:00,VALID,917.142,VALID,0,VALID,100,VALID,-0.101885,VALID,18.4349,VALID,67,VALID,0,
2008-10-05, 02:44:00,VALID,917.117,VALID,0,VALID,100,VALID,-0.0849042,VALID,18.4244,VALID,53,VALID,0,
2008-10-05, 02:45:00,VALID,917.131,VALID,0,VALID,100,VALID,-0.118866,VALID,18.4314,VALID,40,VALID,0,
2008-10-05, 02:46:00,VALID,917.137,VALID,0,VALID,100,VALID,-0.0849042,VALID,18.496,VALID,40,VALID,0,
2008-10-05, 02:47:00,VALID,917.161,VALID,0,VALID,100,VALID,-0.0849042,VALID,18.5576,VALID,51,VALID,0,
2008-10-05, 02:48:00,VALID,917.165,VALID,0,VALID,100,VALID,-0.0679233,VALID,18.5062,VALID,81,VALID,0,
2008-10-05, 02:49:00,VALID,917.15,VALID,0,VALID,100,VALID,-0.0679233,VALID,18.4861,VALID,83,VALID,0,
2008-10-05, 02:50:00,VALID,917.141,VALID,0,VALID,100,VALID,0,VALID,18.4911,VALID,83,VALID,0,
2008-10-05, 02:51:00,VALID,917.142,VALID,0,VALID,100,VALID,0,VALID,18.55,VALID,83,VALID,0,
2008-10-05, 02:52:00,VALID,917.137,VALID,0,VALID,100,VALID,0.0169808,VALID,18.5952,VALID,83,VALID,0,
2008-10-05, 02:53:00,VALID,917.117,VALID,0,VALID,100,VALID,0,VALID,18.5787,VALID,83,VALID,0,
2008-10-05, 02:54:00,VALID,917.097,VALID,0,VALID,100,VALID,0.0169808,VALID,18.5919,VALID,83,VALID,0,
2008-10-05, 02:55:00,VALID,917.086,VALID,0,VALID,100,VALID,-0.0169808,VALID,18.5921,VALID,83,VALID,0,
2008-10-05, 02:56:00,VALID,917.073,VALID,0,VALID,100,VALID,0.0509425,VALID,18.5495,VALID,83,VALID,0,
2008-10-05, 02:57:00,VALID,917.089,VALID,0,VALID,100,VALID,0.0339617,VALID,18.5433,VALID,83,VALID,0,
2008-10-05, 02:58:00,VALID,917.096,VALID,0,VALID,100,VALID,0.0169808,VALID,18.4911,VALID,83,VALID,0,
2008-10-05, 02:59:00,VALID,917.094,VALID,0,VALID,100,VALID,0.0339617,VALID,18.4395,VALID,83,VALID,0,
2008-10-05, 03:00:00,VALID,917.088,VALID,0,VALID,100,VALID,0,VALID,18.4372,VALID,83,VALID,0,
2008-10-05, 03:01:00,VALID,917.087,VALID,0,VALID,100,VALID,0,VALID,18.4594,VALID,83,VALID,0,
2008-10-05, 03:02:00,VALID,917.08,VALID,0,VALID,100,VALID,-0.0169808,VALID,18.5208,VALID,83,VALID,0,
2008-10-05, 03:03:00,VALID,917.054,VALID,0,VALID,100,VALID,0.0169808,VALID,18.5662,VALID,83,VALID,0,
2008-10-05, 03:04:00,VALID,917.033,VALID,0,VALID,100,VALID,-0.0169808,VALID,18.6246,VALID,83,VALID,0,
2008-10-05, 03:05:00,VALID,917.001,VALID,0,VALID,100,VALID,-0.0339617,VALID,18.6577,VALID,83,VALID,0,
2008-10-05, 03:06:00,VALID,916.98,VALID,0,VALID,100,VALID,-0.0509425,VALID,18.6997,VALID,83,VALID,0,
2008-10-05, 03:07:00,VALID,916.956,VALID,0,VALID,100,VALID,-0.0339617,VALID,18.7096,VALID,83,VALID,0,
2008-10-05, 03:08:00,VALID,916.936,VALID,0,VALID,100,VALID,-0.0679233,VALID,18.6285,VALID,83,VALID,0,
2008-10-05, 03:09:00,VALID,916.905,VALID,0,VALID,100,VALID,-0.0509425,VALID,18.6058,VALID,83,VALID,0,
2008-10-05, 03:10:00,VALID,916.891,VALID,0,VALID,100,VALID,-0.0509425,VALID,18.6255,VALID,83,VALID,0,
2008-10-05, 03:11:00,VALID,916.872,VALID,0,VALID,100,VALID,-0.0679233,VALID,18.6577,VALID,83,VALID,0,
2008-10-05, 03:12:00,VALID,916.869,VALID,0,VALID,100,VALID,-0.0679233,VALID,18.6644,VALID,83,VALID,0,
2008-10-05, 03:13:00,VALID,916.875,VALID,0,VALID,100,VALID,-0.0679233,VALID,18.635,VALID,92,VALID,0,
2008-10-05, 03:14:00,VALID,916.87,VALID,0,VALID,100,VALID,-0.0169808,VALID,18.5989,VALID,154,VALID,0,
2008-10-05, 03:15:00,VALID,916.861,VALID,0,VALID,100,VALID,0,VALID,18.6061,VALID,154,VALID,0,
2008-10-05, 03:16:00,VALID,916.858,VALID,0,VALID,100,VALID,-0.0679233,VALID,18.622,VALID,154,VALID,0,
2008-10-05, 03:17:00,VALID,916.835,VALID,0,VALID,100,VALID,-0.0509425,VALID,18.635,VALID,154,VALID,0,
2008-10-05, 03:18:00,VALID,916.818,VALID,0,VALID,100,VALID,-0.0509425,VALID,18.635,VALID,154,VALID,0,
2008-10-05, 03:19:00,VALID,916.793,VALID,0,VALID,100,VALID,-0.0509425,VALID,18.6413,VALID,154,VALID,0,
2008-10-05, 03:20:00,VALID,916.789,VALID,0,VALID,100,VALID,-0.0509425,VALID,18.6512,VALID,155,VALID,0,
2008-10-05, 03:21:00,VALID,916.758,VALID,0,VALID,100,VALID,-0.0509425,VALID,18.641,VALID,155,VALID,0,
2008-10-05, 03:22:00,VALID,916.764,VALID,0,VALID,100,VALID,-0.0339617,VALID,18.658,VALID,156,VALID,0,
2008-10-05, 03:23:00,VALID,916.765,VALID,0,VALID,100,VALID,-0.0509425,VALID,18.6515,VALID,147,VALID,0,
2008-10-05, 03:24:00,VALID,916.768,VALID,0,VALID,100,VALID,-0.0169808,VALID,18.648,VALID,131,VALID,0.363782,
2008-10-05, 03:25:00,VALID,916.77,VALID,0,VALID,100,VALID,0,VALID,18.6276,VALID,130,VALID,0.13157,
2008-10-05, 03:26:00,VALID,916.754,VALID,0,VALID,100,VALID,-0.0339617,VALID,18.622,VALID,129,VALID,0,
2008-10-05, 03:27:00,VALID,916.748,VALID,0,VALID,100,VALID,-0.0509425,VALID,18.638,VALID,129,VALID,0,
2008-10-05, 03:28:00,VALID,916.725,VALID,0,VALID,100,VALID,0,VALID,18.6408,VALID,129,VALID,0,
2008-10-05, 03:29:00,VALID,916.721,VALID,0,VALID,100,VALID,-0.0339617,VALID,18.638,VALID,129,VALID,0,
2008-10-05, 03:30:00,VALID,916.708,VALID,0,VALID,100,VALID,-0.0679233,VALID,18.6086,VALID,131,VALID,0.0263672,
2008-10-05, 03:31:00,VALID,916.692,VALID,0,VALID,100,VALID,-0.0509425,VALID,18.619,VALID,149,VALID,0.280869,
2008-10-05, 03:32:00,VALID,916.664,VALID,0,VALID,100,VALID,-0.0849042,VALID,18.6383,VALID,162,VALID,0.0253472,
2008-10-05, 03:33:00,VALID,916.659,VALID,0,VALID,100,VALID,-0.0679233,VALID,18.648,VALID,162,VALID,0,
2008-10-05, 03:34:00,VALID,916.647,VALID,0,VALID,100,VALID,-0.0679233,VALID,18.6575,VALID,162,VALID,0,
2008-10-05, 03:35:00,VALID,916.649,VALID,0,VALID,100,VALID,-0.0849042,VALID,18.6774,VALID,158,VALID,0,
2008-10-05, 03:36:00,VALID,916.651,VALID,0,VALID,100,VALID,-0.0679233,VALID,18.645,VALID,153,VALID,0,
2008-10-05, 03:37:00,VALID,916.672,VALID,0,VALID,100,VALID,-0.0509425,VALID,18.6151,VALID,150,VALID,0,
2008-10-05, 03:38:00,VALID,916.688,VALID,0,VALID,100,VALID,-0.0169808,VALID,18.5961,VALID,149,VALID,0,
2008-10-05, 03:39:00,VALID,916.694,VALID,0,VALID,100,VALID,0,VALID,18.5405,VALID,149,VALID,0,
2008-10-05, 03:40:00,VALID,916.708,VALID,0,VALID,100,VALID,-0.0849042,VALID,18.5312,VALID,138,VALID,0,
2008-10-05, 03:41:00,VALID,916.687,VALID,0,VALID,100,VALID,-0.0509425,VALID,18.544,VALID,112,VALID,0,
2008-10-05, 03:42:00,VALID,916.694,VALID,0,VALID,100,VALID,-0.0679233,VALID,18.5607,VALID,109,VALID,0.44494,
2008-10-05, 03:43:00,VALID,916.685,VALID,0,VALID,100,VALID,-0.0509425,VALID,18.5539,VALID,110,VALID,0,
2008-10-05, 03:44:00,VALID,916.687,VALID,0,VALID,100,VALID,-0.0679233,VALID,18.5769,VALID,117,VALID,0.00111607,
2008-10-05, 03:45:00,VALID,916.682,VALID,0,VALID,100,VALID,-0.0679233,VALID,18.6188,VALID,129,VALID,0,
2008-10-05, 03:46:00,VALID,916.681,VALID,0,VALID,100,VALID,-0.0509425,VALID,18.664,VALID,132,VALID,0.365007,
2008-10-05, 03:47:00,VALID,916.679,VALID,0,VALID,100,VALID,-0.0509425,VALID,18.6707,VALID,129,VALID,0.189135,
2008-10-05, 03:48:00,VALID,916.685,VALID,0,VALID,100,VALID,-0.0849042,VALID,18.6804,VALID,129,VALID,0,
2008-10-05, 03:49:00,VALID,916.694,VALID,0,VALID,100,VALID,0,VALID,18.6872,VALID,125,VALID,0.00114329,
2008-10-05, 03:50:00,VALID,916.691,VALID,0,VALID,100,VALID,-0.0679233,VALID,18.6515,VALID,140,VALID,0.153646,
2008-10-05, 03:51:00,VALID,916.695,VALID,0,VALID,100,VALID,-0.101885,VALID,18.6156,VALID,131,VALID,0.84737,
2008-10-05, 03:52:00,VALID,916.685,VALID,0,VALID,100,VALID,0,VALID,18.5701,VALID,134,VALID,1.06414,